This is the latest recevied weather packets stored in our database for station/object KI8L. If no packets are shown the sender has not sent any weather packets the latest 10 day(s).
| Time | Temp. | Humidity | Pressure | Rain* | Wind** | Luminosity | Snow |
|---|---|---|---|---|---|---|---|
| 1777616125 | 3.89° C | 99% | 1016 hPa | 0 mm | - | 0 W/m² | - |
| 1777615822 | 3.89° C | 99% | 1016 hPa | 0 mm | - | 0 W/m² | - |
| 1777615519 | 3.89° C | 99% | 1016.2 hPa | 0 mm | - | 0 W/m² | - |
| 1777615215 | 4.44° C | 99% | 1016 hPa | 0 mm | - | 0 W/m² | - |
| 1777614909 | 4.44° C | 99% | 1015.9 hPa | 0 mm | - | 0 W/m² | - |
| 1777614606 | 5° C | 99% | 1016.3 hPa | 0 mm | - | 0 W/m² | - |
| 1777614301 | 5° C | 99% | 1016.3 hPa | 0 mm | - | 0 W/m² | - |
| 1777613997 | 5° C | 99% | 1016.5 hPa | 0 mm | - | 0 W/m² | - |
| 1777613693 | 4.44° C | 99% | 1016.6 hPa | 0 mm | - | 0 W/m² | - |
| 1777613390 | 4.44° C | 99% | 1016.3 hPa | 0 mm | - | 0 W/m² | - |
| 1777613086 | 4.44° C | 99% | 1016.3 hPa | 0 mm | - | 0 W/m² | - |
| 1777612783 | 4.44° C | 99% | 1016.3 hPa | 0 mm | - | 0 W/m² | - |
| 1777612478 | 4.44° C | 99% | 1016.4 hPa | 0 mm | - | 0 W/m² | - |
| 1777612175 | 3.89° C | 99% | 1016.5 hPa | 0 mm | - | 0 W/m² | - |
| 1777611870 | 3.89° C | 99% | 1016.4 hPa | 0 mm | - | 0 W/m² | - |
| 1777611566 | 3.89° C | 99% | 1016.4 hPa | 0 mm | - | 0 W/m² | - |
| 1777611263 | 3.89° C | 99% | 1016.5 hPa | 0 mm | - | 0 W/m² | - |
| 1777610960 | 3.89° C | 99% | 1016.6 hPa | 0 mm | - | 0 W/m² | - |
| 1777610655 | 3.33° C | 99% | 1016.5 hPa | 0 mm | - | 0 W/m² | - |
| 1777610355 | 3.33° C | 99% | 1016.5 hPa | 0 mm | - | 0 W/m² | - |
| 1777610051 | 2.78° C | 99% | 1016.6 hPa | 0 mm | - | 0 W/m² | - |
| 1777609748 | 2.78° C | 99% | 1016.9 hPa | 0 mm | - | 0 W/m² | - |
| 1777609444 | 2.78° C | 99% | 1016.9 hPa | 0 mm | - | 0 W/m² | - |
| 1777609142 | 3.33° C | 99% | 1016.8 hPa | 0 mm | - | 0 W/m² | - |
| 1777608839 | 3.33° C | 99% | 1016.7 hPa | 0 mm | - | 0 W/m² | - |
* Rain latest hour (hover to see other rain measurements)
** Current wind speed in m/s (hover to see current wind gust speed)